Weather History for Newberry, MI

Change the Weather History Date:

Tuesday, March 6, 2012

  Actual Average Record
Temperature  
Mean Temperature 32 °F -  
Max Temperature 39 °F 31 °F 52 °F (1951)
Min Temperature 26 °F 14 °F -18 °F (2003)
Degree Days  
Heating Degree Days 32    
Moisture  
Dew Point 27 °F    
Average Humidity 84    
Maximum Humidity 100    
Minimum Humidity 65    
Precipitation  
Precipitation 0.00 in - - ()
Sea Level Pressure  
Sea Level Pressure 29.99 in    
Wind  
Wind Speed 14 mph (SSE)    
Max Wind Speed 22 mph    
Max Gust Speed 28 mph    
Visibility 9 miles    
Events Snow    
Averages and records for this station are not official NWS values.
T = Trace of Precipitation, MM = Missing Value Source: NWS Daily Summary

Daily Weather History Graph

Daily Weather History Graph

Search for Another Location

Airport:

Trip Planner

Search our weather history database for the weather conditions in past years. The results will help you decide how hot, cold, wet, or windy it might be!

Date:

Astronomy

Mar. 06, 2012 Rise Set
Actual Time 7:10 AM EST 6:35 PM EST
Civil Twilight 6:40 AM EST 7:05 PM EST
Nautical Twilight 6:06 AM EST 7:40 PM EST
Astronomical Twilight 5:31 AM EST 8:15 PM EST
Moon 4:58 PM EST (3/6) 5:50 AM EST (3/6)
Length of Visible Light 12h 25m
Length of Day
11h 25m
Waxing Gibbous, 96% of the Moon is Illuminated
Mar 6
Waxing Gibbous
Mar 8
Full
Mar 14
Last Quarter
Mar 22
New
Mar 30
First Quarter

Hourly Weather History & Observations

Time (EST) Temp. Windchill Dew Point Humidity Pressure Visibility Wind Dir Wind Speed Gust Speed Precip Events Conditions
12:15 AM 26.6 °F 14.7 °F 23.0 °F 86% 30.19 in 10.0 mi South 15.0 mph 18.4 mph N/A   Overcast
12:34 AM 26.6 °F 15.7 °F 24.8 °F 93% 30.19 in 7.0 mi South 12.7 mph 17.3 mph N/A Snow Light Snow
12:54 AM 26.6 °F 15.7 °F 24.8 °F 93% 30.18 in 10.0 mi South 12.7 mph 20.7 mph N/A   Overcast
1:15 AM 26.6 °F 15.7 °F 24.8 °F 93% 30.17 in 7.0 mi South 12.7 mph 17.3 mph N/A Snow Light Snow
1:34 AM 26.6 °F 15.2 °F 24.8 °F 93% 30.17 in 4.0 mi South 13.8 mph 19.6 mph N/A Snow Light Snow
1:55 AM 26.6 °F 15.2 °F 24.8 °F 93% 30.16 in 4.0 mi South 13.8 mph 18.4 mph N/A Snow Light Snow
2:14 AM 26.6 °F 15.2 °F 24.8 °F 93% 30.16 in 3.0 mi South 13.8 mph - N/A Snow Light Snow
2:35 AM 26.6 °F 15.7 °F 24.8 °F 93% 30.14 in 4.0 mi SSE 12.7 mph - N/A Snow Light Snow
2:54 AM 26.6 °F 15.2 °F 24.8 °F 93% 30.14 in 4.0 mi SSE 13.8 mph - N/A Snow Light Snow
3:14 AM 26.6 °F 16.2 °F 24.8 °F 93% 30.13 in 7.0 mi SSE 11.5 mph 16.1 mph N/A Snow Light Snow
3:35 AM 26.6 °F 15.2 °F 24.8 °F 93% 30.12 in 10.0 mi South 13.8 mph 19.6 mph N/A   Overcast
3:54 AM 26.6 °F 15.7 °F 24.8 °F 93% 30.11 in 10.0 mi South 12.7 mph 19.6 mph N/A   Overcast
4:15 AM 26.6 °F 15.7 °F 24.8 °F 93% 30.10 in 10.0 mi South 12.7 mph - N/A   Overcast
4:35 AM 26.6 °F 14.7 °F 24.8 °F 93% 30.09 in 10.0 mi SSE 15.0 mph 19.6 mph N/A   Overcast
4:54 AM 28.4 °F 17.5 °F 24.8 °F 86% 30.09 in 10.0 mi SSE 13.8 mph 21.9 mph N/A   Overcast
5:15 AM 28.4 °F 18.0 °F 24.8 °F 86% 30.09 in 10.0 mi SSE 12.7 mph - N/A   Overcast
5:35 AM 28.4 °F 17.5 °F 24.8 °F 86% 30.08 in 10.0 mi SSE 13.8 mph 19.6 mph N/A   Overcast
5:54 AM 26.6 °F 15.2 °F 24.8 °F 93% 30.08 in 7.0 mi SSE 13.8 mph 21.9 mph N/A Snow Light Snow
6:15 AM 28.4 °F 17.0 °F 24.8 °F 86% 30.07 in 5.0 mi SSE 15.0 mph 24.2 mph N/A Snow Light Snow
6:34 AM 28.4 °F 17.5 °F 24.8 °F 86% 30.06 in 10.0 mi SSE 13.8 mph - N/A Snow Light Snow
6:54 AM 28.4 °F 18.0 °F 24.8 °F 86% 30.05 in 10.0 mi SSE 12.7 mph - N/A   Overcast
7:55 AM 28.4 °F 18.5 °F 26.6 °F 93% 30.05 in 10.0 mi SSE 11.5 mph 20.7 mph N/A   Overcast
8:15 AM 28.4 °F 16.6 °F 26.6 °F 93% 30.05 in 10.0 mi South 16.1 mph 23.0 mph N/A   Overcast
8:34 AM 28.4 °F 17.0 °F 24.8 °F 86% 30.04 in 10.0 mi South 15.0 mph 21.9 mph N/A   Overcast
8:55 AM 28.4 °F 17.5 °F 26.6 °F 93% 30.03 in 7.0 mi South 13.8 mph 25.3 mph N/A   Overcast
9:14 AM 28.4 °F 17.0 °F 26.6 °F 93% 30.03 in 10.0 mi SSE 15.0 mph 19.6 mph N/A   Overcast
9:34 AM 30.2 °F 18.9 °F 26.6 °F 86% 30.03 in 10.0 mi SSE 16.1 mph 23.0 mph N/A   Overcast
9:55 AM 30.2 °F 19.8 °F 26.6 °F 86% 30.02 in 10.0 mi South 13.8 mph 21.9 mph N/A   Overcast
10:14 AM 30.2 °F 18.5 °F 26.6 °F 86% 30.01 in 10.0 mi South 17.3 mph 24.2 mph N/A   Overcast
10:34 AM 30.2 °F 18.5 °F 24.8 °F 80% 30.01 in 10.0 mi South 17.3 mph 25.3 mph N/A   Mostly Cloudy
10:55 AM 30.2 °F 17.8 °F 26.6 °F 86% 30.00 in 10.0 mi SSE 19.6 mph 24.2 mph N/A   Clear
11:14 AM 32.0 °F 20.5 °F 26.6 °F 80% 29.99 in 10.0 mi South 18.4 mph 25.3 mph N/A   Scattered Clouds
11:35 AM 32.0 °F 21.2 °F 26.6 °F 80% 29.99 in 10.0 mi SSE 16.1 mph 23.0 mph N/A   Scattered Clouds
11:55 AM 33.8 °F 23.5 °F 26.6 °F 75% 29.98 in 10.0 mi South 16.1 mph 25.3 mph N/A   Scattered Clouds
12:14 PM 32.0 °F 20.5 °F 26.6 °F 80% 29.96 in 10.0 mi SSE 18.4 mph 25.3 mph N/A   Scattered Clouds
12:35 PM 33.8 °F 23.2 °F 26.6 °F 75% 29.96 in 10.0 mi South 17.3 mph 25.3 mph N/A   Scattered Clouds
12:54 PM 33.8 °F 23.5 °F 26.6 °F 75% 29.95 in 10.0 mi South 16.1 mph 26.5 mph N/A   Clear
1:14 PM 33.8 °F 21.9 °F 26.6 °F 75% 29.94 in 10.0 mi South 21.9 mph 25.3 mph N/A   Clear
1:35 PM 35.6 °F 25.5 °F 26.6 °F 70% 29.93 in 10.0 mi SSE 17.3 mph 27.6 mph N/A   Clear
1:54 PM 35.6 °F 26.6 °F 26.6 °F 70% 29.91 in 10.0 mi South 13.8 mph - N/A   Clear
2:35 PM 35.6 °F 25.5 °F 28.4 °F 75% 29.88 in 10.0 mi SSE 17.3 mph 23.0 mph N/A   Clear
2:54 PM 35.6 °F 25.9 °F 28.4 °F 75% 29.85 in 10.0 mi SE 16.1 mph 21.9 mph N/A   Clear
3:15 PM 37.4 °F 28.2 °F 28.4 °F 70% 29.87 in 10.0 mi SSE 16.1 mph - N/A   Clear
3:34 PM 37.4 °F 27.5 °F 28.4 °F 70% 29.86 in 10.0 mi SSE 18.4 mph 24.2 mph N/A   Clear
3:55 PM 37.4 °F 27.8 °F 28.4 °F 70% 29.84 in 10.0 mi SE 17.3 mph 23.0 mph N/A   Clear
4:14 PM 37.4 °F 28.2 °F 28.4 °F 70% 29.84 in 10.0 mi SE 16.1 mph 19.6 mph N/A   Clear
4:35 PM 39.2 °F 30.8 °F 28.4 °F 65% 29.85 in 10.0 mi SSE 15.0 mph - N/A   Clear
4:55 PM 39.2 °F 32.0 °F 30.2 °F 70% 29.84 in 10.0 mi SE 11.5 mph - N/A   Clear
5:14 PM 39.2 °F 32.5 °F 30.2 °F 70% 29.83 in 10.0 mi SE 10.4 mph 16.1 mph N/A   Clear
5:35 PM 39.2 °F 31.6 °F 30.2 °F 70% 29.82 in 10.0 mi SE 12.7 mph - N/A   Clear
5:55 PM 39.2 °F 31.6 °F 30.2 °F 70% 29.82 in 10.0 mi SE 12.7 mph - N/A   Clear
6:14 PM 39.2 °F 33.6 °F 30.2 °F 70% 29.81 in 10.0 mi SE 8.1 mph - N/A   Clear
6:35 PM 37.4 °F 32.1 °F 30.2 °F 75% 29.80 in 10.0 mi ESE 6.9 mph - N/A   Clear
6:55 PM 35.6 °F 28.6 °F 30.2 °F 81% 29.80 in 10.0 mi ESE 9.2 mph - N/A   Clear
7:54 PM 33.8 °F 27.0 °F 30.2 °F 87% 29.80 in 10.0 mi ESE 8.1 mph - N/A   Clear
8:35 PM 32.0 °F - 30.2 °F 93% 29.80 in 10.0 mi Calm Calm - N/A   Clear
9:15 PM 30.2 °F - 28.4 °F 93% 29.81 in 10.0 mi Calm Calm - N/A   Clear
9:34 PM 30.2 °F 25.4 °F 30.2 °F 100% 29.80 in 10.0 mi ESE 4.6 mph - N/A   Clear
10:15 PM 30.2 °F 25.4 °F 30.2 °F 100% 29.79 in 10.0 mi ESE 4.6 mph - N/A   Clear
10:34 PM 30.2 °F 25.4 °F 30.2 °F 100% 29.79 in 10.0 mi ESE 4.6 mph - N/A   Clear
10:55 PM 30.2 °F 25.4 °F 28.4 °F 93% 29.79 in 10.0 mi ESE 4.6 mph - N/A   Clear
11:15 PM 32.0 °F 28.7 °F 30.2 °F 93% 29.78 in 10.0 mi ESE 3.5 mph - N/A   Clear
11:55 PM 32.0 °F 27.5 °F 30.2 °F 93% 29.77 in 10.0 mi ESE 4.6 mph - N/A   Clear